• Em Portugal
  • Lista de países
  • Para 7 dias
  • Temperatura da água
  • Mapas de satélite
  • Mapa do tempo
  • Widgets de tempo
  • user-avatar
    Iniciar Sessão

    Previsão horária em Diffa

    Hoje, 22 Janeiro, Segunda-feira

    Tempo Temperatura Precipitação Vento Pressão Humidade
    00:00 +20°C° 0 mm 3 m/s 734 mmHg 17%
    01:00 +20°C° 0 mm 3 m/s 734 mmHg 19%
    02:00 +19°C° 0 mm 4 m/s 734 mmHg 20%
    03:00 +19°C° 0 mm 4 m/s 734 mmHg 20%
    04:00 +18°C° 0 mm 4 m/s 733 mmHg 21%
    05:00 +18°C° 0 mm 4 m/s 734 mmHg 21%
    06:00 +18°C° 0 mm 4 m/s 734 mmHg 22%
    07:00 +17°C° 0 mm 4 m/s 734 mmHg 22%
    08:00 +20°C° 0 mm 5 m/s 734 mmHg 20%
    09:00 +22°C° 0 mm 6 m/s 735 mmHg 18%
    10:00 +26°C° 0 mm 8 m/s 735 mmHg 16%
    11:00 +27°C° 0 mm 8 m/s 735 mmHg 14%
    12:00 +28°C° 0 mm 8 m/s 735 mmHg 12%
    13:00 +31°C° 0 mm 8 m/s 734 mmHg 11%
    14:00 +30°C° 0 mm 7 m/s 734 mmHg 10%
    15:00 +30°C° 0 mm 7 m/s 733 mmHg 10%
    16:00 +30°C° 0 mm 7 m/s 733 mmHg 9%
    17:00 +28°C° 0 mm 6 m/s 733 mmHg 10%
    18:00 +26°C° 0 mm 4 m/s 733 mmHg 12%
    19:00 +24°C° 0 mm 3 m/s 733 mmHg 13%
    20:00 +23°C° 0 mm 4 m/s 733 mmHg 14%
    21:00 +22°C° 0 mm 4 m/s 734 mmHg 15%
    22:00 +22°C° 0 mm 4 m/s 734 mmHg 17%
    23:00 +21°C° 0 mm 4 m/s 734 mmHg 18%

    Amanhã, 23 Janeiro, Terça-feira

    Tempo Temperatura Precipitação Vento Pressão Humidade
    00:00 +21°C° 0 mm 4 m/s 734 mmHg 19%
    01:00 +20°C° 0 mm 4 m/s 734 mmHg 20%
    02:00 +19°C° 0 mm 4 m/s 734 mmHg 21%
    03:00 +19°C° 0 mm 4 m/s 733 mmHg 22%
    04:00 +18°C° 0 mm 4 m/s 733 mmHg 23%
    05:00 +18°C° 0 mm 4 m/s 733 mmHg 23%
    06:00 +18°C° 0 mm 4 m/s 734 mmHg 24%
    07:00 +17°C° 0 mm 4 m/s 734 mmHg 25%
    08:00 +20°C° 0 mm 5 m/s 734 mmHg 23%
    09:00 +22°C° 0 mm 6 m/s 735 mmHg 21%
    10:00 +26°C° 0 mm 7 m/s 735 mmHg 18%
    11:00 +27°C° 0 mm 7 m/s 735 mmHg 17%
    12:00 +28°C° 0 mm 7 m/s 734 mmHg 15%
    13:00 +30°C° 0 mm 7 m/s 734 mmHg 13%
    14:00 +30°C° 0 mm 7 m/s 733 mmHg 12%
    15:00 +30°C° 0 mm 7 m/s 733 mmHg 11%
    16:00 +30°C° 0 mm 7 m/s 732 mmHg 10%
    17:00 +28°C° 0 mm 6 m/s 732 mmHg 11%
    18:00 +27°C° 0 mm 5 m/s 732 mmHg 12%
    19:00 +25°C° 0 mm 4 m/s 733 mmHg 14%
    20:00 +23°C° 0 mm 4 m/s 733 mmHg 16%
    21:00 +23°C° 0 mm 4 m/s 733 mmHg 18%
    22:00 +23°C° 0 mm 5 m/s 734 mmHg 21%
    23:00 +22°C° 0 mm 5 m/s 734 mmHg 23%

    Depois de amanhã, 24 Janeiro, Quarta-feira

    Tempo Temperatura Precipitação Vento Pressão Humidade
    00:00 +22°C° 0 mm 5 m/s 734 mmHg 24%
    01:00 +21°C° 0 mm 5 m/s 733 mmHg 26%
    02:00 +21°C° 0 mm 5 m/s 733 mmHg 27%
    03:00 +20°C° 0 mm 5 m/s 733 mmHg 28%
    04:00 +20°C° 0 mm 5 m/s 733 mmHg 29%
    05:00 +19°C° 0 mm 5 m/s 733 mmHg 29%
    06:00 +19°C° 0 mm 5 m/s 733 mmHg 30%
    07:00 +18°C° 0 mm 4 m/s 734 mmHg 30%
    08:00 +20°C° 0 mm 6 m/s 734 mmHg 27%
    09:00 +23°C° 0 mm 7 m/s 735 mmHg 24%
    10:00 +26°C° 0 mm 8 m/s 735 mmHg 20%
    11:00 +27°C° 0 mm 8 m/s 735 mmHg 18%
    12:00 +28°C° 0 mm 7 m/s 734 mmHg 16%
    13:00 +30°C° 0 mm 7 m/s 733 mmHg 14%
    14:00 +30°C° 0 mm 7 m/s 733 mmHg 14%
    15:00 +30°C° 0 mm 7 m/s 732 mmHg 13%
    16:00 +30°C° 0 mm 6 m/s 731 mmHg 12%
    17:00 +28°C° 0 mm 5 m/s 732 mmHg 13%
    18:00 +26°C° 0 mm 4 m/s 732 mmHg 15%
    19:00 +25°C° 0 mm 3 m/s 732 mmHg 16%
    20:00 +23°C° 0 mm 4 m/s 733 mmHg 18%
    21:00 +23°C° 0 mm 4 m/s 733 mmHg 19%
    22:00 +22°C° 0 mm 4 m/s 734 mmHg 21%
    23:00 +22°C° 0 mm 4 m/s 733 mmHg 23%

    25 Janeiro, Quinta-feira

    Tempo Temperatura Precipitação Vento Pressão Humidade
    00:00 +21°C° 0 mm 4 m/s 733 mmHg 25%
    01:00 +21°C° 0 mm 5 m/s 733 mmHg 27%
    02:00 +20°C° 0 mm 5 m/s 733 mmHg 29%
    03:00 +20°C° 0 mm 5 m/s 732 mmHg 31%
    04:00 +20°C° 0 mm 5 m/s 732 mmHg 32%
    05:00 +19°C° 0 mm 5 m/s 732 mmHg 34%
    06:00 +19°C° 0 mm 5 m/s 733 mmHg 35%
    07:00 +19°C° 0 mm 5 m/s 733 mmHg 37%
    08:00 +21°C° 0 mm 6 m/s 734 mmHg 32%
    09:00 +23°C° 0 mm 7 m/s 734 mmHg 28%
    10:00 +26°C° 0 mm 8 m/s 735 mmHg 24%
    11:00 +27°C° 0 mm 8 m/s 734 mmHg 22%
    12:00 +28°C° 0 mm 7 m/s 733 mmHg 19%
    13:00 +29°C° 0 mm 7 m/s 733 mmHg 17%
    14:00 +30°C° 0 mm 7 m/s 732 mmHg 16%
    15:00 +30°C° 0 mm 7 m/s 732 mmHg 15%
    16:00 +30°C° 0 mm 7 m/s 731 mmHg 14%
    17:00 +28°C° 0 mm 6 m/s 731 mmHg 16%
    18:00 +26°C° 0 mm 5 m/s 732 mmHg 18%
    19:00 +25°C° 0 mm 3 m/s 732 mmHg 21%
    20:00 +23°C° 0 mm 4 m/s 733 mmHg 24%
    21:00 +23°C° 0 mm 4 m/s 733 mmHg 27%
    22:00 +22°C° 0 mm 5 m/s 734 mmHg 30%
    23:00 +22°C° 0 mm 5 m/s 734 mmHg 32%

    26 Janeiro, Sexta-feira

    Tempo Temperatura Precipitação Vento Pressão Humidade
    00:00 +22°C° 0 mm 5 m/s 733 mmHg 34%
    01:00 +21°C° 0 mm 5 m/s 733 mmHg 37%
    02:00 +21°C° 0 mm 5 m/s 733 mmHg 39%
    03:00 +20°C° 0 mm 5 m/s 733 mmHg 41%
    04:00 +20°C° 0 mm 5 m/s 733 mmHg 43%
    05:00 +19°C° 0 mm 5 m/s 733 mmHg 44%
    06:00 +19°C° 0 mm 5 m/s 733 mmHg 46%
    07:00 +19°C° 0 mm 5 m/s 733 mmHg 47%
    08:00 +21°C° 0 mm 6 m/s 734 mmHg 42%
    09:00 +23°C° 0 mm 7 m/s 734 mmHg 36%
    10:00 +24°C° 0 mm 8 m/s 735 mmHg 30%
    11:00 +27°C° 0 mm 8 m/s 734 mmHg 27%
    12:00 +28°C° 0 mm 8 m/s 733 mmHg 24%
    13:00 +29°C° 0 mm 7 m/s 733 mmHg 22%
    14:00 +29°C° 0 mm 7 m/s 732 mmHg 20%
    15:00 +29°C° 0 mm 7 m/s 732 mmHg 19%
    16:00 +30°C° 0 mm 7 m/s 731 mmHg 18%
    17:00 +28°C° 0 mm 6 m/s 732 mmHg 20%
    18:00 +26°C° 0 mm 5 m/s 732 mmHg 22%
    19:00 +25°C° 0 mm 4 m/s 732 mmHg 24%
    20:00 +23°C° 0 mm 4 m/s 733 mmHg 26%
    21:00 +23°C° 0 mm 4 m/s 733 mmHg 29%
    22:00 +22°C° 0 mm 5 m/s 734 mmHg 32%
    23:00 +22°C° 0 mm 5 m/s 733 mmHg 33%

    27 Janeiro, Sábado

    Tempo Temperatura Precipitação Vento Pressão Humidade
    00:00 +21°C° 0 mm 5 m/s 733 mmHg 35%
    01:00 +21°C° 0 mm 5 m/s 733 mmHg 36%
    02:00 +20°C° 0 mm 5 m/s 733 mmHg 38%
    03:00 +20°C° 0 mm 5 m/s 732 mmHg 39%
    04:00 +20°C° 0 mm 5 m/s 732 mmHg 41%
    05:00 +19°C° 0 mm 5 m/s 733 mmHg 42%
    06:00 +19°C° 0 mm 5 m/s 733 mmHg 43%
    07:00 +17°C° 0 mm 5 m/s 733 mmHg 44%
    08:00 +20°C° 0 mm 6 m/s 734 mmHg 39%
    09:00 +22°C° 0 mm 6 m/s 734 mmHg 35%
    10:00 +24°C° 0 mm 7 m/s 734 mmHg 30%
    11:00 +27°C° 0 mm 7 m/s 734 mmHg 26%
    12:00 +28°C° 0 mm 7 m/s 733 mmHg 23%
    13:00 +30°C° 0 mm 7 m/s 732 mmHg 19%
    14:00 +30°C° 0 mm 6 m/s 732 mmHg 19%
    15:00 +30°C° 0 mm 6 m/s 731 mmHg 18%
    16:00 +30°C° 0 mm 6 m/s 731 mmHg 17%
    17:00 +29°C° 0 mm 5 m/s 731 mmHg 18%
    18:00 +27°C° 0 mm 4 m/s 731 mmHg 20%
    19:00 +25°C° 0 mm 3 m/s 731 mmHg 22%
    20:00 +24°C° 0 mm 3 m/s 732 mmHg 23%
    21:00 +23°C° 0 mm 4 m/s 732 mmHg 25%
    22:00 +22°C° 0 mm 4 m/s 733 mmHg 26%
    23:00 +22°C° 0 mm 4 m/s 732 mmHg 28%
    Mostrar mais